Tracking 19245 objects as of 14-Aug-2018
HD Live streaming from Space Station
objects crossing your sky now

TES

Track TES now!
10-day predictions
TES is classified as:


NORAD ID: 26957
Int'l Code: 2001-049A
Perigee: 513.4 km
Apogee: 568.0 km
Inclination: 97.7 °
Period: 95.3 minutes
Semi major axis: 6911 km
RCS: 3.0893 m2 (large)
Launch date: October 22, 2001
Source: India (IND)
Launch site: SRIHARIKOTA (SRI)

Takes high resolution photos of anything over 3 feet; called prototype for India's "spy satellite."
aabbcc
Your satellite tracking list
Your tracking list is empty




NASA's NSSDC Master Catalog

Two Line Element Set (TLE):
1 26957U 01049A   18224.88990418 +.00000105 +00000-0 +10285-4 0  9993
2 26957 097.6790 330.7117 0039437 021.7478 122.1225 15.10866034922075
Source of the keplerian elements: AFSPC